Location: Petruro
(41.0333°N, 14.7833°E)
Time: 09:13:02
(UTC+00:00)

CBERS-1 - Pass Details

Date: 20 June 2021
Orbit: 770 x 776 km, 98.7° (Epoch: 01 August)

Event Time Altitude Azimuth Distance (km) Brightness Sun altitude
Rises 02:00:06 0° 9° (N) 3,265 8.3 -13.5°
Reaches altitude 10° 02:02:27 10° 5° (N) 2,333 7.3 -13.2°
Maximum altitude 02:07:28 56° 288° (WNW) 921 4.3 -12.6°
Enters shadow 02:11:26 16° 214° (SW) 1,923 5.4 -12.0°
